Location: Barcelona
(41.3829°N, 2.1774°E)
Time: 20:01:47
(UTC+00:00)

ISS - Pass Details

Date: 08 July 2025
Orbit: 413 x 417 km, 51.6° (Epoch: 13 July)

Event Time Altitude Azimuth Distance (km) Brightness Sun altitude
Rises 20:44:24 0° 230° (SW) 2,337 0.1 -12.3°
Reaches altitude 10° 20:46:28 10° 229° (SW) 1,479 -0.9 -12.5°
Maximum altitude 20:49:47 77° 143° (SE) 428 -3.9 -13.0°
Drops below altitude 10° 20:53:08 10° 57° (ENE) 1,490 -1.1 -13.4°
Sets 20:55:14 0° 56° (NE) 2,356 0.0 -13.7°
